Regional Weather Roundup
Issued by NWS

Home | Current Version | Previous Version | Graphics & Text | Print | Product List | Glossary Off
Versions: 1 2 3 4 5 6 7 8 9 10 11 12 13 14 15 16 17 18 19 20 21 22 23 24 25 26 27 28 29 30 31 32 33 34 35 36 37 38 39 40 41 42 43 44 45 46 47 48 49 50

000
ASUS43 KDTX 050310
RWRMI
MICHIGAN HOURLY REGIONAL WEATHER ROUNDUP
NATIONAL WEATHER SERVICE DETROIT/PONTIAC MI
ISSUED BY NATIONAL WEATHER SERVICE GRAND RAPIDS MI
1000 PM EST SUN DEC 04 2016

NOTE: "FAIR" INDICATES FEW OR NO CLOUDS BELOW 12,000 FEET WITH NO
SIGNIFICANT WEATHER AND/OR OBSTRUCTION TO VISIBILITY.

MIZ047>049-052>055-059>063-066>070-074>076-081>083-050400-
SOUTHEAST LOWER MICHIGAN

CITY           SKY/WX    TMP DP  RH WIND       PRES   REMARKS
ADRIAN         LGT SNOW  32  32 100 S5        29.83F FOG     WCI  27
ALMA           LGT SNOW  32  32  99 CALM      29.86F VSB 1
ANN ARBOR      LGT SNOW  33  33 100 CALM      29.82F FOG
BAD AXE        MIX PCPN  34  33  94 S6        29.82S WCI  29
DETROIT CITY   LGT SNOW  35  34  96 S7        29.85R FOG     WCI  29
DETROIT        LGT SNOW  33  33 100 S5        29.85F VSB 1   WCI  29
FLINT          LGT SNOW  33  32  96 S6        29.83F FOG     WCI  28
GROSSE ILE     MIX PCPN  35  34  93 S10       29.84R WCI  28
HILLSDALE      LGT SNOW  32  32 100 SE7       29.80S WCI  26
HOWELL         LGT SNOW  33  32  97 S6        29.81F WCI  27

CITY           SKY/WX    TMP DP  RH WIND       PRES   REMARKS
JACKSON        LGT SNOW  33  31  92 S6        29.81F FOG     WCI  28
LANSING        LGT SNOW  33  30  88 W7        29.85R VSB 1   WCI  27
MASON          LGT SNOW  32  32  99 S5        29.82S WCI  28
MONROE         MIX PCPN  34  34  99 S8        29.83F WCI  28
MT. CLEMENS    LGT RAIN  37  35  93 S12       29.83R FOG     WCI  29
PONTIAC        LGT SNOW  32  30  92 S8        29.81S VSB 3/4 WCI  25
PORT HOPE        N/A     37  35  92 S15G22    29.79F WCI  28
PORT HURON     LGT RAIN  36  34  93 CALM      29.84S
TRI CITIES     SNOW      33  33 100 NW7       29.86R VSB 1/2 WCI  27
YPSILANTI      LGT SNOW  33  33 100 SE3       29.83F VSB 3/4
$$
MIZ043>046-050>051-056>058-064>065-071>073-077>080-050400-
SOUTHWEST LOWER MICHIGAN

CITY           SKY/WX    TMP DP  RH WIND       PRES   REMARKS
BATTLE CREEK   LGT SNOW  33  32  96 W3        29.84S FOG
BENTON HARBOR  CLOUDY    33  31  92 CALM      29.86F
BIG RAPIDS     LGT SNOW  32  31  94 CALM      29.82F
COLDWATER      LGT SNOW  33  33  99 CALM      29.82F
HOLLAND        LGT SNOW  32  31  96 CALM      29.85F VSB 3/4
GRAND RAPIDS   LGT SNOW  32  30  92 CALM      29.84F FOG
KALAMAZOO      LGT SNOW  33  31  92 NW3       29.84F VSB 1
MARSHALL       LGT SNOW  33  32  98 CALM      29.82S
MOUNT PLEASANT LGT SNOW  32  32  99 CALM      29.84F VSB 1
MUSKEGON       LGT SNOW  33  32  96 SE6       29.85F FOG     WCI  28
STURGIS        LGT SNOW  33  32  96 CALM      29.82F
$$
MIZ016>042-050400-
NORTHERN LOWER MICHIGAN

CITY           SKY/WX    TMP DP  RH WIND       PRES   REMARKS
ALPENA         LGT SNOW  33  31  92 CALM      29.86F VSB 1
BEAVER ISLAND  LGT SNOW  33  32  99 S3        29.80F
BELLAIRE       LGT SNOW  32  32  99 S5        29.83F WCI  27
CADILLAC       LGT SNOW  31  29  94 S5        29.80F WCI  26
CHARLEVOIX     LGT SNOW  32  32 100 SE3       29.85F
GAYLORD        LGT SNOW  31  28  89 S6        29.81F FOG     WCI  25
HOUGHTON LAKE  LGT SNOW  31  29  92 S7        29.83F FOG     WCI  24
MANISTEE       LGT SNOW  32  31  96 SE5       29.82F FOG     WCI  27
OSCODA         LGT SNOW  35  33  93 MISG      29.85R
PELLSTON       LGT SNOW  32  29  88 SE6       29.83F VSB 1   WCI  26
TRAVERSE CITY  LGT SNOW  33  31  92 CALM      29.82F VSB 1
LUDINGTON      LGT SNOW  32  32 100 S3        29.82F
$$
MIZ007>008-015-050400-
EASTERN UPPER MICHIGAN

CITY           SKY/WX    TMP DP  RH WIND       PRES   REMARKS
KINROSS        LGT SNOW  32  31  96 S9        29.82F FOG     WCI  24
MACKINAC ISLAN LGT SNOW  32  32 100 S5        29.82F WCI  27
NEWBERRY       LGT SNOW  32  31  97 SE6       29.79F WCI  26
S. S. MARIE    LGT SNOW  31  30  96 E9        29.82F FOG     WCI  23
$$
MIZ004>006-011>014-085-050400-
CENTRAL UPPER MICHIGAN

CITY           SKY/WX    TMP DP  RH WIND       PRES   REMARKS
MANISTIQUE     DRIZZLE   35  33  92 S13       29.77F WCI  26
ESCANABA       LGT SNOW  32  31  96 W3        29.77F FOG
MENOMINEE      LGT SNOW  32  31  96 SW7       29.79F FOG     WCI  26
SAWYER-GWINN   LGT SNOW  30  28  93 S10       29.73F WCI  21
$$
MIZ001>003-009>011-084-050400-
WESTERN UPPER MICHIGAN

CITY           SKY/WX    TMP DP  RH WIND       PRES   REMARKS
IRON MOUNTAIN  LGT SNOW  30  27  88 S6        29.72F FOG     WCI  24
HOUGHTON       LGT SNOW  30  28  92 S8        29.68F FOG     WCI  22
COPPER HARBOR    N/A     33  31  92 VRB5      29.72F WCI  29
IRONWOOD       FLURRIES  31  29  92 S9        29.67F WCI  23
$$

ABBREVIATIONS USED IN REMARKS
   TC - TEMPERATURE IN CELSIUS
  WCI - WIND CHILL INDEX
   HX - HEAT INDEX
  VSB - VISIBILITY




USA.gov is the U.S. government's official web portal to all federal, state and local government web resources and services.